Location: Unspecified
(0.0000°N, 0.0000°E)
Time: 16:23:42
(UTC+00:00)

Vanguard 1 - Pass Details

Date: 24 November 2019
Orbit: 651 x 3832 km, 34.3° (Epoch: 11 December)

Event Time Altitude Azimuth Distance (km) Brightness Sun altitude
Rises 16:36:24 0° 316° (NW) 2,947 12.8 16.4°
Reaches altitude 10° 16:38:33 10° 321° (NW) 2,074 12.0 15.9°
Maximum altitude 16:42:57 53° 39° (NE) 938 9.9 14.9°
Drops below altitude 10° 16:49:08 10° 115° (ESE) 2,890 12.1 13.4°
Sets 16:52:39 0° 119° (ESE) 4,263 13.0 12.6°
